Orbital Elements at Epoch 2459200.5 (2020-Dec-17.0) TDB
Reference: JPL 24 (heliocentric ecliptic J2000)
Element | Value | Uncertainty (1-sigma) | Units |
e | .1677393520398626 | 3.0395e-08 | |
a | 2.777406788657747 | 1.5866e-08 | au |
q | 2.31152637357718 | 8.6513e-08 | au |
i | 7.774664617571735 | 3.7985e-06 | deg |
node | 153.952454525597 | 2.6151e-05 | deg |
peri | 301.4433279686528 | 2.9146e-05 | deg |
M | 133.6049072462468 | 1.2481e-05 | deg |
tp | 2458573.052237394077 (2019-Mar-30.55223739) | 5.7395e-05 | TDB |
period | 1690.665404391259 4.63 | 1.4487e-05 3.966e-08 | d yr |
n | .2129339129226588 | 1.8246e-09 | deg/d |
Q | 3.243287203738313 | 1.8528e-08 | au |
|
| | Orbit Determination Parameters
Additional Information
|